Time,TemperatureF,DewpointF,PressureIn,WindDirection,WindDirectionDegrees,WindSpeedMPH,WindSpeedGustMPH,Humidity,HourlyPrecipIn,Conditions,Clouds,dailyrainin,SoftwareType,DateUTC
2013-01-08 00:01:00,17.0,15.6,30.33,South,177,0.0,0.0,94,0.00,,,0.00,Wunderground v.1.15,2013-01-08 05:01:00,
2013-01-08 00:02:00,17.0,15.6,30.33,South,177,0.0,0.0,94,0.00,,,0.00,Wunderground v.1.15,2013-01-08 05:02:00,
2013-01-08 00:03:00,17.0,15.6,30.33,South,177,0.0,0.0,94,0.00,,,0.00,Wunderground v.1.15,2013-01-08 05:03:00,
2013-01-08 00:08:00,17.0,15.6,30.33,South,177,0.0,0.0,94,0.00,,,0.00,Wunderground v.1.15,2013-01-08 05:08:00,
2013-01-08 00:10:00,16.9,15.5,30.33,South,176,0.0,0.0,94,0.00,,,0.00,Wunderground v.1.15,2013-01-08 05:10:00,
2013-01-08 00:16:00,16.7,15.3,30.32,South,176,0.0,0.0,94,0.00,,,0.00,Wunderground v.1.15,2013-01-08 05:16:00,
2013-01-08 00:21:00,16.6,14.9,30.32,South,176,0.0,0.0,93,0.00,,,0.00,Wunderground v.1.15,2013-01-08 05:21:00,
2013-01-08 00:26:00,16.6,15.2,30.32,South,176,0.0,0.0,94,0.00,,,0.00,Wunderground v.1.15,2013-01-08 05:26:00,
2013-01-08 00:32:00,16.6,15.2,30.32,South,177,0.0,0.0,94,0.00,,,0.00,Wunderground v.1.15,2013-01-08 05:32:00,
2013-01-08 00:38:00,16.5,15.1,30.32,South,177,0.0,0.0,94,0.00,,,0.00,Wunderground v.1.15,2013-01-08 05:38:00,
2013-01-08 00:43:00,16.5,15.1,30.32,South,177,0.0,0.0,94,0.00,,,0.00,Wunderground v.1.15,2013-01-08 05:43:00,
2013-01-08 00:48:00,16.5,15.1,30.32,South,176,0.0,0.0,94,0.00,,,0.00,Wunderground v.1.15,2013-01-08 05:48:00,
2013-01-08 00:54:00,16.5,15.1,30.31,South,177,0.0,0.0,94,0.00,,,0.00,Wunderground v.1.15,2013-01-08 05:54:00,
2013-01-08 01:00:00,16.4,15.0,30.31,South,176,0.0,0.0,94,0.00,,,0.00,Wunderground v.1.15,2013-01-08 06:00:00,
2013-01-08 01:06:00,16.3,14.9,30.31,South,177,0.0,0.0,94,0.00,,,0.00,Wunderground v.1.15,2013-01-08 06:06:00,
2013-01-08 01:11:00,16.3,14.9,30.32,South,177,0.0,0.0,94,0.00,,,0.00,Wunderground v.1.15,2013-01-08 06:11:00,
2013-01-08 01:17:00,16.2,14.8,30.32,South,176,0.0,0.0,94,0.00,,,0.00,Wunderground v.1.15,2013-01-08 06:17:00,
2013-01-08 01:22:00,16.2,14.8,30.32,South,177,0.0,0.0,94,0.00,,,0.00,Wunderground v.1.15,2013-01-08 06:22:00,
2013-01-08 01:28:00,16.2,14.8,30.32,South,177,0.0,0.0,94,0.00,,,0.00,Wunderground v.1.15,2013-01-08 06:28:00,
2013-01-08 01:34:00,16.2,14.8,30.33,South,177,0.0,0.0,94,0.00,,,0.00,Wunderground v.1.15,2013-01-08 06:34:00,
2013-01-08 01:39:00,16.1,14.7,30.33,South,176,0.0,0.0,94,0.00,,,0.00,Wunderground v.1.15,2013-01-08 06:39:00,
2013-01-08 01:44:00,16.1,14.7,30.33,South,177,0.0,0.0,94,0.00,,,0.00,Wunderground v.1.15,2013-01-08 06:44:00,
2013-01-08 01:49:00,16.1,14.7,30.33,South,176,0.0,0.0,94,0.00,,,0.00,Wunderground v.1.15,2013-01-08 06:49:00,
2013-01-08 01:54:00,16.1,14.7,30.34,South,177,0.0,0.0,94,0.00,,,0.00,Wunderground v.1.15,2013-01-08 06:54:00,
2013-01-08 01:59:00,16.1,14.7,30.34,South,177,0.0,0.0,94,0.00,,,0.00,Wunderground v.1.15,2013-01-08 06:59:00,
2013-01-08 02:04:00,16.1,14.7,30.34,South,177,0.0,0.0,94,0.00,,,0.00,Wunderground v.1.15,2013-01-08 07:04:00,
2013-01-08 02:09:00,16.2,14.8,30.34,South,177,0.0,0.0,94,0.00,,,0.00,Wunderground v.1.15,2013-01-08 07:09:00,
2013-01-08 02:14:00,16.2,14.8,30.34,South,176,0.0,0.0,94,0.00,,,0.00,Wunderground v.1.15,2013-01-08 07:14:00,
2013-01-08 02:19:00,16.2,14.8,30.34,South,177,0.0,0.0,94,0.00,,,0.00,Wunderground v.1.15,2013-01-08 07:19:00,
2013-01-08 02:24:00,16.3,14.9,30.34,South,177,0.0,0.0,94,0.00,,,0.00,Wunderground v.1.15,2013-01-08 07:24:00,
2013-01-08 02:30:00,16.3,14.9,30.34,South,177,0.0,0.0,94,0.00,,,0.00,Wunderground v.1.15,2013-01-08 07:30:00,
2013-01-08 02:36:00,16.3,14.9,30.34,South,176,0.0,0.0,94,0.00,,,0.00,Wunderground v.1.15,2013-01-08 07:36:00,
2013-01-08 02:42:00,16.2,14.8,30.34,South,177,0.0,0.0,94,0.00,,,0.00,Wunderground v.1.15,2013-01-08 07:42:00,
2013-01-08 02:48:00,16.2,14.8,30.34,South,176,0.0,0.0,94,0.00,,,0.00,Wunderground v.1.15,2013-01-08 07:48:00,
2013-01-08 02:53:00,16.2,14.8,30.33,South,177,0.0,0.0,94,0.00,,,0.00,Wunderground v.1.15,2013-01-08 07:53:00,
2013-01-08 02:59:00,16.1,14.7,30.34,South,176,0.0,0.0,94,0.00,,,0.00,Wunderground v.1.15,2013-01-08 07:59:00,
2013-01-08 03:04:00,16.1,14.7,30.34,South,177,0.0,0.0,94,0.00,,,0.00,Wunderground v.1.15,2013-01-08 08:04:00,
2013-01-08 03:09:00,16.1,14.7,30.34,South,176,0.0,0.0,94,0.00,,,0.00,Wunderground v.1.15,2013-01-08 08:09:00,
2013-01-08 03:15:00,16.0,14.6,30.34,South,176,0.0,0.0,94,0.00,,,0.00,Wunderground v.1.15,2013-01-08 08:15:00,
2013-01-08 03:20:00,16.0,14.6,30.34,South,177,0.0,0.0,94,0.00,,,0.00,Wunderground v.1.15,2013-01-08 08:20:00,
2013-01-08 03:26:00,16.0,14.6,30.34,South,177,0.0,0.0,94,0.00,,,0.00,Wunderground v.1.15,2013-01-08 08:26:00,
2013-01-08 03:31:00,15.9,14.5,30.34,South,177,0.0,0.0,94,0.00,,,0.00,Wunderground v.1.15,2013-01-08 08:31:00,
2013-01-08 03:36:00,15.9,14.5,30.33,South,177,0.0,0.0,94,0.00,,,0.00,Wunderground v.1.15,2013-01-08 08:36:00,
2013-01-08 03:41:00,15.9,14.5,30.33,South,176,0.0,0.0,94,0.00,,,0.00,Wunderground v.1.15,2013-01-08 08:41:00,
2013-01-08 03:47:00,15.8,14.4,30.33,South,177,0.0,0.0,94,0.00,,,0.00,Wunderground v.1.15,2013-01-08 08:47:00,
2013-01-08 03:52:00,15.8,14.4,30.33,South,177,0.0,0.0,94,0.00,,,0.00,Wunderground v.1.15,2013-01-08 08:52:00,
2013-01-08 03:58:00,15.7,14.3,30.33,South,177,0.0,0.0,94,0.00,,,0.00,Wunderground v.1.15,2013-01-08 08:58:00,
2013-01-08 04:04:00,15.7,14.3,30.33,South,177,0.0,0.0,94,0.00,,,0.00,Wunderground v.1.15,2013-01-08 09:04:00,
2013-01-08 04:10:00,15.6,14.2,30.34,South,177,0.0,0.0,94,0.00,,,0.00,Wunderground v.1.15,2013-01-08 09:10:00,
2013-01-08 04:16:00,15.5,14.1,30.34,South,177,0.0,0.0,94,0.00,,,0.00,Wunderground v.1.15,2013-01-08 09:16:00,
2013-01-08 04:22:00,15.4,14.0,30.34,South,177,0.0,0.0,94,0.00,,,0.00,Wunderground v.1.15,2013-01-08 09:22:00,
2013-01-08 04:27:00,15.4,14.0,30.34,South,177,0.0,0.0,94,0.00,,,0.00,Wunderground v.1.15,2013-01-08 09:27:00,
2013-01-08 04:32:00,15.4,14.0,30.34,South,177,0.0,0.0,94,0.00,,,0.00,Wunderground v.1.15,2013-01-08 09:32:00,
2013-01-08 04:37:00,15.3,13.9,30.34,South,177,0.0,0.0,94,0.00,,,0.00,Wunderground v.1.15,2013-01-08 09:37:00,
2013-01-08 04:43:00,15.3,13.9,30.33,South,177,0.0,0.0,94,0.00,,,0.00,Wunderground v.1.15,2013-01-08 09:43:00,
2013-01-08 04:48:00,15.2,13.8,30.33,South,176,0.0,0.0,94,0.00,,,0.00,Wunderground v.1.15,2013-01-08 09:48:00,
2013-01-08 04:53:00,15.1,13.4,30.33,South,177,0.0,0.0,93,0.00,,,0.00,Wunderground v.1.15,2013-01-08 09:53:00,
2013-01-08 04:58:00,14.9,13.2,30.34,South,176,0.0,0.0,93,0.00,,,0.00,Wunderground v.1.15,2013-01-08 09:58:00,
2013-01-08 05:03:00,14.9,13.5,30.34,South,176,0.0,0.0,94,0.00,,,0.00,Wunderground v.1.15,2013-01-08 10:03:00,
2013-01-08 05:08:00,14.8,13.4,30.35,South,177,0.0,0.0,94,0.00,,,0.00,Wunderground v.1.15,2013-01-08 10:08:00,
2013-01-08 05:14:00,14.8,13.4,30.35,South,177,0.0,0.0,94,0.00,,,0.00,Wunderground v.1.15,2013-01-08 10:14:00,
2013-01-08 05:19:00,14.8,13.1,30.36,South,176,0.0,0.0,93,0.00,,,0.00,Wunderground v.1.15,2013-01-08 10:19:00,
2013-01-08 05:25:00,14.7,13.0,30.36,South,176,0.0,0.0,93,0.00,,,0.00,Wunderground v.1.15,2013-01-08 10:25:00,
2013-01-08 05:30:00,14.7,13.0,30.36,South,177,0.0,0.0,93,0.00,,,0.00,Wunderground v.1.15,2013-01-08 10:30:00,
2013-01-08 05:36:00,14.6,12.9,30.37,South,177,0.0,0.0,93,0.00,,,0.00,Wunderground v.1.15,2013-01-08 10:36:00,
2013-01-08 05:41:00,14.6,12.9,30.37,South,177,0.0,0.0,93,0.00,,,0.00,Wunderground v.1.15,2013-01-08 10:41:00,
2013-01-08 05:47:00,14.5,12.8,30.37,South,176,0.0,0.0,93,0.00,,,0.00,Wunderground v.1.15,2013-01-08 10:47:00,
2013-01-08 05:53:00,14.5,13.1,30.37,South,177,0.0,0.0,94,0.00,,,0.00,Wunderground v.1.15,2013-01-08 10:53:00,
2013-01-08 05:58:00,14.5,13.1,30.37,South,176,0.0,0.0,94,0.00,,,0.00,Wunderground v.1.15,2013-01-08 10:58:00,
2013-01-08 06:03:00,14.5,12.8,30.38,South,176,0.0,0.0,93,0.00,,,0.00,Wunderground v.1.15,2013-01-08 11:03:00,
2013-01-08 06:08:00,14.5,12.8,30.38,South,177,0.0,0.0,93,0.00,,,0.00,Wunderground v.1.15,2013-01-08 11:08:00,
2013-01-08 06:14:00,14.4,12.7,30.38,South,176,0.0,0.0,93,0.00,,,0.00,Wunderground v.1.15,2013-01-08 11:14:00,
2013-01-08 06:19:00,14.4,12.7,30.38,South,176,0.0,0.0,93,0.00,,,0.00,Wunderground v.1.15,2013-01-08 11:19:00,
2013-01-08 06:24:00,14.4,12.7,30.38,South,177,0.0,0.0,93,0.00,,,0.00,Wunderground v.1.15,2013-01-08 11:24:00,
2013-01-08 06:29:00,14.5,12.8,30.39,South,177,0.0,0.0,93,0.00,,,0.00,Wunderground v.1.15,2013-01-08 11:29:00,
2013-01-08 06:34:00,14.4,12.7,30.39,South,176,0.0,0.0,93,0.00,,,0.00,Wunderground v.1.15,2013-01-08 11:34:00,
2013-01-08 06:39:00,14.4,12.7,30.39,South,176,0.0,0.0,93,0.00,,,0.00,Wunderground v.1.15,2013-01-08 11:39:00,
2013-01-08 06:44:00,14.4,12.7,30.39,South,176,0.0,0.0,93,0.00,,,0.00,Wunderground v.1.15,2013-01-08 11:44:00,
2013-01-08 06:50:00,14.4,12.7,30.39,South,177,0.0,0.0,93,0.00,,,0.00,Wunderground v.1.15,2013-01-08 11:50:00,
2013-01-08 06:55:00,14.4,12.7,30.39,South,177,0.0,0.0,93,0.00,,,0.00,Wunderground v.1.15,2013-01-08 11:55:00,
2013-01-08 07:01:00,14.3,12.6,30.40,South,176,0.0,0.0,93,0.00,,,0.00,Wunderground v.1.15,2013-01-08 12:01:00,
2013-01-08 07:06:00,14.3,12.6,30.40,South,177,0.0,0.0,93,0.00,,,0.00,Wunderground v.1.15,2013-01-08 12:06:00,
2013-01-08 07:11:00,14.3,12.6,30.40,South,177,0.0,0.0,93,0.00,,,0.00,Wunderground v.1.15,2013-01-08 12:11:00,
2013-01-08 07:16:00,14.3,12.6,30.40,South,176,0.0,0.0,93,0.00,,,0.00,Wunderground v.1.15,2013-01-08 12:16:00,
2013-01-08 07:22:00,14.3,12.6,30.40,South,176,0.0,0.0,93,0.00,,,0.00,Wunderground v.1.15,2013-01-08 12:22:00,
2013-01-08 07:27:00,14.3,12.6,30.40,South,176,0.0,0.0,93,0.00,,,0.00,Wunderground v.1.15,2013-01-08 12:27:00,
2013-01-08 07:32:00,14.3,12.6,30.40,South,177,0.0,0.0,93,0.00,,,0.00,Wunderground v.1.15,2013-01-08 12:32:00,
2013-01-08 07:37:00,14.3,12.6,30.40,South,176,0.0,0.0,93,0.00,,,0.00,Wunderground v.1.15,2013-01-08 12:37:00,
2013-01-08 07:42:00,14.4,12.7,30.40,South,177,0.0,0.0,93,0.00,,,0.00,Wunderground v.1.15,2013-01-08 12:42:00,
2013-01-08 07:47:00,14.3,12.6,30.40,South,177,0.0,0.0,93,0.00,,,0.00,Wunderground v.1.15,2013-01-08 12:47:00,
2013-01-08 07:53:00,14.5,12.8,30.41,South,176,0.0,0.0,93,0.00,,,0.00,Wunderground v.1.15,2013-01-08 12:53:00,
2013-01-08 07:59:00,14.5,13.1,30.41,South,177,0.0,0.0,94,0.00,,,0.00,Wunderground v.1.15,2013-01-08 12:59:00,
2013-01-08 08:05:00,14.6,13.2,30.41,South,177,0.0,0.0,94,0.00,,,0.00,Wunderground v.1.15,2013-01-08 13:05:00,
2013-01-08 08:10:00,14.8,13.4,30.41,South,177,0.0,0.0,94,0.00,,,0.00,Wunderground v.1.15,2013-01-08 13:10:00,
2013-01-08 08:15:00,14.9,13.5,30.42,South,176,0.0,0.0,94,0.00,,,0.00,Wunderground v.1.15,2013-01-08 13:15:00,
2013-01-08 08:20:00,15.2,13.8,30.41,South,176,0.0,0.0,94,0.00,,,0.00,Wunderground v.1.15,2013-01-08 13:20:00,
2013-01-08 08:25:00,15.3,13.9,30.42,South,177,0.0,0.0,94,0.00,,,0.00,Wunderground v.1.15,2013-01-08 13:25:00,
2013-01-08 08:30:00,15.5,14.1,30.42,South,177,0.0,0.0,94,0.00,,,0.00,Wunderground v.1.15,2013-01-08 13:30:00,
2013-01-08 08:35:00,15.9,14.5,30.42,South,177,0.0,0.0,94,0.00,,,0.00,Wunderground v.1.15,2013-01-08 13:35:00,
2013-01-08 08:40:00,16.2,14.8,30.42,South,176,0.0,0.0,94,0.00,,,0.00,Wunderground v.1.15,2013-01-08 13:40:00,
2013-01-08 08:45:00,16.4,15.0,30.42,South,177,0.0,0.0,94,0.00,,,0.00,Wunderground v.1.15,2013-01-08 13:45:00,
2013-01-08 08:50:00,16.7,15.5,30.42,South,177,0.0,0.0,95,0.00,,,0.00,Wunderground v.1.15,2013-01-08 13:50:00,
2013-01-08 08:56:00,17.4,16.2,30.42,South,177,0.0,0.0,95,0.00,,,0.00,Wunderground v.1.15,2013-01-08 13:56:00,
2013-01-08 09:01:00,18.5,17.3,30.42,South,176,0.0,0.0,95,0.00,,,0.00,Wunderground v.1.15,2013-01-08 14:01:00,
2013-01-08 09:06:00,19.5,18.5,30.42,South,177,0.0,0.0,96,0.00,,,0.00,Wunderground v.1.15,2013-01-08 14:06:00,
2013-01-08 09:11:00,20.3,19.3,30.42,South,177,0.0,0.0,96,0.00,,,0.00,Wunderground v.1.15,2013-01-08 14:11:00,
2013-01-08 09:16:00,20.7,19.5,30.43,South,177,0.0,0.0,95,0.00,,,0.00,Wunderground v.1.15,2013-01-08 14:16:00,
2013-01-08 09:21:00,21.6,20.6,30.42,South,176,0.0,0.0,96,0.00,,,0.00,Wunderground v.1.15,2013-01-08 14:21:00,
2013-01-08 09:27:00,21.9,20.7,30.42,South,177,0.0,0.0,95,0.00,,,0.00,Wunderground v.1.15,2013-01-08 14:27:00,
2013-01-08 09:32:00,22.3,21.1,30.43,South,177,0.0,0.0,95,0.00,,,0.00,Wunderground v.1.15,2013-01-08 14:32:00,
2013-01-08 09:37:00,23.0,21.8,30.43,South,177,0.0,0.0,95,0.00,,,0.00,Wunderground v.1.15,2013-01-08 14:37:00,
2013-01-08 09:42:00,24.0,23.0,30.42,South,177,0.0,0.0,96,0.00,,,0.00,Wunderground v.1.15,2013-01-08 14:42:00,
2013-01-08 09:47:00,24.5,23.3,30.43,South,176,0.0,0.0,95,0.00,,,0.00,Wunderground v.1.15,2013-01-08 14:47:00,
2013-01-08 09:52:00,25.5,24.3,30.43,South,177,0.0,0.0,95,0.00,,,0.00,Wunderground v.1.15,2013-01-08 14:52:00,
2013-01-08 09:58:00,26.5,25.0,30.43,South,177,0.0,0.0,94,0.00,,,0.00,Wunderground v.1.15,2013-01-08 14:58:00,
2013-01-08 10:03:00,28.3,26.8,30.43,South,176,0.0,0.0,94,0.00,,,0.00,Wunderground v.1.15,2013-01-08 15:03:00,
2013-01-08 10:08:00,29.4,27.6,30.44,South,176,0.0,0.0,93,0.00,,,0.00,Wunderground v.1.15,2013-01-08 15:08:00,
2013-01-08 10:14:00,30.9,29.1,30.43,South,176,0.0,0.0,93,0.00,,,0.00,Wunderground v.1.15,2013-01-08 15:14:00,
2013-01-08 10:19:00,32.2,29.9,30.44,South,175,0.0,0.0,91,0.00,,,0.00,Wunderground v.1.15,2013-01-08 15:19:00,
2013-01-08 10:24:00,33.2,29.8,30.44,NNE,26,0.0,1.0,87,0.00,,,0.00,Wunderground v.1.15,2013-01-08 15:24:00,
2013-01-08 10:29:00,33.8,29.8,30.44,NNE,26,0.0,1.0,85,0.00,,,0.00,Wunderground v.1.15,2013-01-08 15:29:00,
2013-01-08 10:34:00,34.0,29.7,30.44,NNE,26,0.0,0.0,84,0.00,,,0.00,Wunderground v.1.15,2013-01-08 15:34:00,
2013-01-08 10:39:00,34.4,30.1,30.44,NNE,26,0.0,0.0,84,0.00,,,0.00,Wunderground v.1.15,2013-01-08 15:39:00,
2013-01-08 10:45:00,34.1,30.4,30.44,ESE,117,0.0,2.0,86,0.00,,,0.00,Wunderground v.1.15,2013-01-08 15:45:00,
2013-01-08 10:50:00,35.0,30.1,30.43,ESE,117,0.0,0.0,82,0.00,,,0.00,Wunderground v.1.15,2013-01-08 15:50:00,
2013-01-08 10:55:00,34.7,30.7,30.43,ESE,117,0.0,0.0,85,0.00,,,0.00,Wunderground v.1.15,2013-01-08 15:55:00,
2013-01-08 11:00:00,36.2,31.2,30.43,SSE,165,1.0,1.0,82,0.00,,,0.00,Wunderground v.1.15,2013-01-08 16:00:00,
2013-01-08 11:06:00,37.4,30.8,30.43,SE,130,2.0,4.0,77,0.00,,,0.00,Wunderground v.1.15,2013-01-08 16:06:00,
2013-01-08 11:11:00,38.8,30.9,30.42,SE,141,4.0,7.0,73,0.00,,,0.00,Wunderground v.1.15,2013-01-08 16:11:00,
2013-01-08 11:16:00,39.5,30.9,30.42,South,172,5.0,9.0,71,0.00,,,0.00,Wunderground v.1.15,2013-01-08 16:16:00,
2013-01-08 11:21:00,39.9,30.9,30.42,SE,146,4.0,6.0,70,0.00,,,0.00,Wunderground v.1.15,2013-01-08 16:21:00,
2013-01-08 11:26:00,40.2,30.8,30.42,SSE,151,4.0,6.0,69,0.00,,,0.00,Wunderground v.1.15,2013-01-08 16:26:00,
2013-01-08 11:31:00,40.5,31.1,30.42,SSE,152,4.0,6.0,69,0.00,,,0.00,Wunderground v.1.15,2013-01-08 16:31:00,
2013-01-08 11:36:00,40.7,31.3,30.41,SE,145,5.0,8.0,69,0.00,,,0.00,Wunderground v.1.15,2013-01-08 16:36:00,
2013-01-08 11:42:00,41.1,31.3,30.41,South,175,4.0,5.0,68,0.00,,,0.00,Wunderground v.1.15,2013-01-08 16:42:00,
2013-01-08 11:47:00,41.4,31.3,30.41,South,183,4.0,6.0,67,0.00,,,0.00,Wunderground v.1.15,2013-01-08 16:47:00,
2013-01-08 11:52:00,41.3,31.2,30.41,SSE,148,3.0,3.0,67,0.00,,,0.00,Wunderground v.1.15,2013-01-08 16:52:00,
2013-01-08 11:58:00,41.2,31.4,30.41,South,189,2.0,6.0,68,0.00,,,0.00,Wunderground v.1.15,2013-01-08 16:58:00,
2013-01-08 12:04:00,41.3,31.5,30.41,South,180,2.0,4.0,68,0.00,,,0.00,Wunderground v.1.15,2013-01-08 17:04:00,
2013-01-08 12:09:00,41.6,31.8,30.41,SSE,161,2.0,4.0,68,0.00,,,0.00,Wunderground v.1.15,2013-01-08 17:09:00,
2013-01-08 12:14:00,41.7,31.9,30.41,ESE,109,3.0,5.0,68,0.00,,,0.00,Wunderground v.1.15,2013-01-08 17:14:00,
2013-01-08 12:19:00,41.8,32.0,30.41,SSE,164,3.0,5.0,68,0.00,,,0.00,Wunderground v.1.15,2013-01-08 17:19:00,
2013-01-08 12:24:00,42.1,31.9,30.40,SSE,149,4.0,5.0,67,0.00,,,0.00,Wunderground v.1.15,2013-01-08 17:24:00,
2013-01-08 12:29:00,42.3,31.7,30.40,SSE,157,3.0,5.0,66,0.00,,,0.00,Wunderground v.1.15,2013-01-08 17:29:00,
2013-01-08 12:34:00,42.7,32.1,30.40,South,180,3.0,10.0,66,0.00,,,0.00,Wunderground v.1.15,2013-01-08 17:34:00,
2013-01-08 12:39:00,43.4,32.8,30.40,South,185,2.0,10.0,66,0.00,,,0.00,Wunderground v.1.15,2013-01-08 17:39:00,
2013-01-08 12:44:00,43.7,33.1,30.39,South,175,1.0,10.0,66,0.00,,,0.00,Wunderground v.1.15,2013-01-08 17:44:00,
2013-01-08 12:50:00,43.8,32.8,30.39,SE,132,2.0,10.0,65,0.00,,,0.00,Wunderground v.1.15,2013-01-08 17:50:00,
2013-01-08 12:56:00,44.2,32.8,30.39,West,281,4.0,10.0,64,0.00,,,0.00,Wunderground v.1.15,2013-01-08 17:56:00,
2013-01-08 13:02:00,44.5,33.1,30.39,WNW,284,3.0,3.0,64,0.00,,,0.00,Wunderground v.1.15,2013-01-08 18:02:00,
2013-01-08 13:07:00,44.4,33.4,30.39,NW,311,2.0,3.0,65,0.00,,,0.00,Wunderground v.1.15,2013-01-08 18:07:00,
2013-01-08 13:12:00,44.6,33.2,30.39,SSE,161,2.0,6.0,64,0.00,,,0.00,Wunderground v.1.15,2013-01-08 18:12:00,
2013-01-08 13:18:00,44.9,33.1,30.38,SE,145,3.0,6.0,63,0.00,,,0.00,Wunderground v.1.15,2013-01-08 18:18:00,
2013-01-08 13:23:00,45.1,33.2,30.38,SSE,153,2.0,4.0,63,0.00,,,0.00,Wunderground v.1.15,2013-01-08 18:23:00,
2013-01-08 13:28:00,45.5,33.6,30.38,West,267,2.0,4.0,63,0.00,,,0.00,Wunderground v.1.15,2013-01-08 18:28:00,
2013-01-08 13:34:00,45.4,33.5,30.38,SW,214,2.0,7.0,63,0.00,,,0.00,Wunderground v.1.15,2013-01-08 18:34:00,
2013-01-08 13:39:00,45.4,33.9,30.38,SSW,192,3.0,7.0,64,0.00,,,0.00,Wunderground v.1.15,2013-01-08 18:39:00,
2013-01-08 13:44:00,45.5,33.6,30.38,SSW,210,3.0,7.0,63,0.00,,,0.00,Wunderground v.1.15,2013-01-08 18:44:00,
2013-01-08 13:49:00,45.5,33.6,30.38,WSW,257,4.0,7.0,63,0.00,,,0.00,Wunderground v.1.15,2013-01-08 18:49:00,
2013-01-08 13:54:00,45.2,33.3,30.38,South,169,4.0,7.0,63,0.00,,,0.00,Wunderground v.1.15,2013-01-08 18:54:00,
2013-01-08 13:59:00,45.0,33.2,30.38,East,79,3.0,7.0,63,0.00,,,0.00,Wunderground v.1.15,2013-01-08 18:59:00,
2013-01-08 14:05:00,45.0,33.5,30.38,WSW,242,3.0,6.0,64,0.00,,,0.00,Wunderground v.1.15,2013-01-08 19:05:00,
2013-01-08 14:10:00,45.0,33.5,30.38,North,355,2.0,6.0,64,0.00,,,0.00,Wunderground v.1.15,2013-01-08 19:10:00,
2013-01-08 14:15:00,44.8,33.4,30.39,SSE,156,1.0,2.0,64,0.00,,,0.00,Wunderground v.1.15,2013-01-08 19:15:00,
2013-01-08 14:21:00,45.0,33.5,30.38,South,182,1.0,2.0,64,0.00,,,0.00,Wunderground v.1.15,2013-01-08 19:21:00,
2013-01-08 14:26:00,45.2,33.3,30.38,South,179,2.0,4.0,63,0.00,,,0.00,Wunderground v.1.15,2013-01-08 19:26:00,
2013-01-08 14:31:00,45.0,33.5,30.38,South,189,3.0,3.0,64,0.00,,,0.00,Wunderground v.1.15,2013-01-08 19:31:00,
2013-01-08 14:36:00,45.1,33.2,30.38,South,173,2.0,11.0,63,0.00,,,0.00,Wunderground v.1.15,2013-01-08 19:36:00,
2013-01-08 14:41:00,45.1,33.6,30.39,WNW,284,1.0,1.0,64,0.00,,,0.00,Wunderground v.1.15,2013-01-08 19:41:00,
2013-01-08 14:46:00,45.0,33.5,30.38,WNW,299,1.0,11.0,64,0.00,,,0.00,Wunderground v.1.15,2013-01-08 19:46:00,
2013-01-08 14:51:00,45.0,33.5,30.38,WNW,299,1.0,1.0,64,0.00,,,0.00,Wunderground v.1.15,2013-01-08 19:51:00,
2013-01-08 14:56:00,45.4,33.9,30.38,NW,311,1.0,11.0,64,0.00,,,0.00,Wunderground v.1.15,2013-01-08 19:56:00,
2013-01-08 15:02:00,45.6,34.1,30.39,NW,311,1.0,1.0,64,0.00,,,0.00,Wunderground v.1.15,2013-01-08 20:02:00,
2013-01-08 15:07:00,45.6,33.7,30.38,NNW,327,1.0,3.0,63,0.00,,,0.00,Wunderground v.1.15,2013-01-08 20:07:00,
2013-01-08 15:12:00,45.4,33.9,30.39,SSE,148,1.0,3.0,64,0.00,,,0.00,Wunderground v.1.15,2013-01-08 20:12:00,
2013-01-08 15:17:00,45.3,33.8,30.39,South,184,2.0,4.0,64,0.00,,,0.00,Wunderground v.1.15,2013-01-08 20:17:00,
2013-01-08 15:22:00,45.4,33.5,30.39,SSE,157,2.0,3.0,63,0.00,,,0.00,Wunderground v.1.15,2013-01-08 20:22:00,
2013-01-08 15:27:00,45.4,33.5,30.39,SSE,157,1.0,3.0,63,0.00,,,0.00,Wunderground v.1.15,2013-01-08 20:27:00,
2013-01-08 15:33:00,44.7,34.0,30.39,SSE,157,0.0,8.0,66,0.00,,,0.00,Wunderground v.1.15,2013-01-08 20:33:00,
2013-01-08 15:38:00,43.8,34.3,30.39,SSE,157,0.0,8.0,69,0.00,,,0.00,Wunderground v.1.15,2013-01-08 20:38:00,
2013-01-08 15:43:00,43.4,34.3,30.39,SSE,157,0.0,8.0,70,0.00,,,0.00,Wunderground v.1.15,2013-01-08 20:43:00,
2013-01-08 15:48:00,42.3,33.9,30.39,SSE,157,0.0,8.0,72,0.00,,,0.00,Wunderground v.1.15,2013-01-08 20:48:00,
2013-01-08 15:53:00,41.5,34.2,30.40,SSE,157,0.0,8.0,75,0.00,,,0.00,Wunderground v.1.15,2013-01-08 20:53:00,
2013-01-08 15:58:00,41.4,34.4,30.40,SSE,157,0.0,8.0,76,0.00,,,0.00,Wunderground v.1.15,2013-01-08 20:58:00,
2013-01-08 16:03:00,40.9,34.2,30.40,SSE,157,0.0,0.0,77,0.00,,,0.00,Wunderground v.1.15,2013-01-08 21:03:00,
2013-01-08 16:08:00,40.7,34.0,30.40,SSE,157,0.0,0.0,77,0.00,,,0.00,Wunderground v.1.15,2013-01-08 21:08:00,
2013-01-08 16:13:00,40.4,34.1,30.40,SSE,157,0.0,0.0,78,0.00,,,0.00,Wunderground v.1.15,2013-01-08 21:13:00,
2013-01-08 16:18:00,39.7,33.7,30.40,SSE,157,0.0,0.0,79,0.00,,,0.00,Wunderground v.1.15,2013-01-08 21:18:00,
2013-01-08 16:23:00,39.3,33.6,30.40,SSE,157,0.0,1.0,80,0.00,,,0.00,Wunderground v.1.15,2013-01-08 21:23:00,
2013-01-08 16:28:00,38.8,33.5,30.40,SSE,157,0.0,1.0,81,0.00,,,0.00,Wunderground v.1.15,2013-01-08 21:28:00,
2013-01-08 16:34:00,38.4,33.1,30.40,SSE,157,0.0,6.0,81,0.00,,,0.00,Wunderground v.1.15,2013-01-08 21:34:00,
2013-01-08 16:40:00,38.1,33.1,30.40,SSE,157,0.0,6.0,82,0.00,,,0.00,Wunderground v.1.15,2013-01-08 21:40:00,
2013-01-08 16:45:00,37.7,33.0,30.41,SSE,157,0.0,6.0,83,0.00,,,0.00,Wunderground v.1.15,2013-01-08 21:45:00,
2013-01-08 16:50:00,37.3,32.6,30.40,SSE,157,0.0,6.0,83,0.00,,,0.00,Wunderground v.1.15,2013-01-08 21:50:00,
2013-01-08 16:55:00,37.0,32.6,30.40,SSE,157,0.0,6.0,84,0.00,,,0.00,Wunderground v.1.15,2013-01-08 21:55:00,
2013-01-08 17:00:00,36.8,32.4,30.40,SSE,157,0.0,0.0,84,0.00,,,0.00,Wunderground v.1.15,2013-01-08 22:00:00,
2013-01-08 17:06:00,36.4,32.3,30.40,SSE,157,0.0,0.0,85,0.00,,,0.00,Wunderground v.1.15,2013-01-08 22:06:00,
2013-01-08 17:11:00,36.1,32.3,30.40,SSE,157,0.0,0.0,86,0.00,,,0.00,Wunderground v.1.15,2013-01-08 22:11:00,
2013-01-08 17:17:00,35.7,31.9,30.39,SSE,157,0.0,0.0,86,0.00,,,0.00,Wunderground v.1.15,2013-01-08 22:17:00,
2013-01-08 17:22:00,35.4,31.6,30.39,SSE,157,0.0,0.0,86,0.00,,,0.00,Wunderground v.1.15,2013-01-08 22:22:00,
2013-01-08 17:27:00,35.0,31.5,30.39,SSE,157,0.0,0.0,87,0.00,,,0.00,Wunderground v.1.15,2013-01-08 22:27:00,
2013-01-08 17:32:00,34.4,30.9,30.40,SSE,157,0.0,1.0,87,0.00,,,0.00,Wunderground v.1.15,2013-01-08 22:32:00,
2013-01-08 17:38:00,34.1,30.9,30.39,SSE,157,0.0,1.0,88,0.00,,,0.00,Wunderground v.1.15,2013-01-08 22:38:00,
2013-01-08 17:44:00,33.5,30.3,30.39,SSE,157,0.0,1.0,88,0.00,,,0.00,Wunderground v.1.15,2013-01-08 22:44:00,
2013-01-08 17:50:00,33.0,30.1,30.39,SSE,157,0.0,1.0,89,0.00,,,0.00,Wunderground v.1.15,2013-01-08 22:50:00,
2013-01-08 17:55:00,32.6,29.7,30.40,SSE,157,0.0,1.0,89,0.00,,,0.00,Wunderground v.1.15,2013-01-08 22:55:00,
2013-01-08 18:00:00,32.3,29.7,30.40,SSE,157,0.0,0.0,90,0.00,,,0.00,Wunderground v.1.15,2013-01-08 23:00:00,
2013-01-08 18:06:00,31.9,29.3,30.40,SSE,157,0.0,0.0,90,0.00,,,0.00,Wunderground v.1.15,2013-01-08 23:06:00,
2013-01-08 18:11:00,31.7,29.1,30.40,SSE,157,0.0,0.0,90,0.00,,,0.00,Wunderground v.1.15,2013-01-08 23:11:00,
2013-01-08 18:16:00,31.6,29.3,30.40,SSE,157,0.0,0.0,91,0.00,,,0.00,Wunderground v.1.15,2013-01-08 23:16:00,
2013-01-08 18:21:00,31.3,29.0,30.39,SSE,157,0.0,0.0,91,0.00,,,0.00,Wunderground v.1.15,2013-01-08 23:21:00,
2013-01-08 18:26:00,30.9,28.6,30.39,SSE,157,0.0,0.0,91,0.00,,,0.00,Wunderground v.1.15,2013-01-08 23:26:00,
2013-01-08 18:31:00,30.8,28.8,30.39,SSE,157,0.0,1.0,92,0.00,,,0.00,Wunderground v.1.15,2013-01-08 23:31:00,
2013-01-08 18:36:00,30.5,28.2,30.40,SSE,157,0.0,1.0,91,0.00,,,0.00,Wunderground v.1.15,2013-01-08 23:36:00,
2013-01-08 18:42:00,30.3,28.3,30.40,SSE,157,0.0,1.0,92,0.00,,,0.00,Wunderground v.1.15,2013-01-08 23:42:00,
2013-01-08 18:47:00,30.2,28.2,30.40,SSE,157,0.0,1.0,92,0.00,,,0.00,Wunderground v.1.15,2013-01-08 23:47:00,
2013-01-08 18:52:00,29.9,27.9,30.40,SSE,157,0.0,1.0,92,0.00,,,0.00,Wunderground v.1.15,2013-01-08 23:52:00,
2013-01-08 18:58:00,29.6,27.6,30.39,SSE,157,0.0,1.0,92,0.00,,,0.00,Wunderground v.1.15,2013-01-08 23:58:00,
2013-01-08 19:04:00,29.5,27.5,30.40,SSE,157,0.0,0.0,92,0.00,,,0.00,Wunderground v.1.15,2013-01-09 00:04:00,
2013-01-08 19:09:00,29.3,27.3,30.40,SSE,157,0.0,0.0,92,0.00,,,0.00,Wunderground v.1.15,2013-01-09 00:09:00,
2013-01-08 19:14:00,29.1,27.3,30.40,SSE,157,0.0,0.0,93,0.00,,,0.00,Wunderground v.1.15,2013-01-09 00:14:00,
2013-01-08 19:19:00,29.0,27.2,30.40,SSE,157,0.0,0.0,93,0.00,,,0.00,Wunderground v.1.15,2013-01-09 00:19:00,
2013-01-08 19:25:00,28.8,27.0,30.40,SSE,157,0.0,0.0,93,0.00,,,0.00,Wunderground v.1.15,2013-01-09 00:25:00,
2013-01-08 19:30:00,28.7,26.9,30.40,SSE,157,0.0,0.0,93,0.00,,,0.00,Wunderground v.1.15,2013-01-09 00:30:00,
2013-01-08 19:35:00,28.5,26.7,30.40,SSE,157,0.0,0.0,93,0.00,,,0.00,Wunderground v.1.15,2013-01-09 00:35:00,
2013-01-08 19:40:00,28.3,26.5,30.39,SSE,157,0.0,0.0,93,0.00,,,0.00,Wunderground v.1.15,2013-01-09 00:40:00,
2013-01-08 19:45:00,28.3,26.5,30.40,SSE,157,0.0,0.0,93,0.00,,,0.00,Wunderground v.1.15,2013-01-09 00:45:00,
2013-01-08 19:50:00,28.2,26.4,30.40,SSE,157,0.0,0.0,93,0.00,,,0.00,Wunderground v.1.15,2013-01-09 00:50:00,
2013-01-08 19:55:00,28.1,26.3,30.40,SSE,157,0.0,0.0,93,0.00,,,0.00,Wunderground v.1.15,2013-01-09 00:55:00,
2013-01-08 20:01:00,28.1,26.3,30.40,SSE,157,0.0,0.0,93,0.00,,,0.00,Wunderground v.1.15,2013-01-09 01:01:00,
2013-01-08 20:06:00,28.1,26.3,30.40,SSE,157,0.0,0.0,93,0.00,,,0.00,Wunderground v.1.15,2013-01-09 01:06:00,
2013-01-08 20:11:00,28.0,26.2,30.40,SSE,157,0.0,0.0,93,0.00,,,0.00,Wunderground v.1.15,2013-01-09 01:11:00,
2013-01-08 20:16:00,27.9,26.1,30.41,SSE,157,0.0,0.0,93,0.00,,,0.00,Wunderground v.1.15,2013-01-09 01:16:00,
2013-01-08 20:22:00,27.8,26.0,30.41,SSE,157,0.0,0.0,93,0.00,,,0.00,Wunderground v.1.15,2013-01-09 01:22:00,
2013-01-08 20:27:00,27.8,26.0,30.41,SSE,157,0.0,0.0,93,0.00,,,0.00,Wunderground v.1.15,2013-01-09 01:27:00,
2013-01-08 20:32:00,27.6,25.8,30.41,SSE,157,0.0,0.0,93,0.00,,,0.00,Wunderground v.1.15,2013-01-09 01:32:00,
2013-01-08 20:37:00,27.6,25.8,30.41,SSE,157,0.0,0.0,93,0.00,,,0.00,Wunderground v.1.15,2013-01-09 01:37:00,
2013-01-08 20:42:00,27.5,25.7,30.41,SSE,157,0.0,0.0,93,0.00,,,0.00,Wunderground v.1.15,2013-01-09 01:42:00,
2013-01-08 20:47:00,27.3,25.5,30.40,SSE,157,0.0,0.0,93,0.00,,,0.00,Wunderground v.1.15,2013-01-09 01:47:00,
2013-01-08 20:52:00,27.2,25.4,30.40,SSE,157,0.0,0.0,93,0.00,,,0.00,Wunderground v.1.15,2013-01-09 01:52:00,
2013-01-08 20:57:00,27.1,25.3,30.40,SSE,157,0.0,0.0,93,0.00,,,0.00,Wunderground v.1.15,2013-01-09 01:57:00,
2013-01-08 21:03:00,27.1,25.3,30.40,SSE,157,0.0,0.0,93,0.00,,,0.00,Wunderground v.1.15,2013-01-09 02:03:00,
2013-01-08 21:08:00,27.0,25.2,30.39,SSE,157,0.0,0.0,93,0.00,,,0.00,Wunderground v.1.15,2013-01-09 02:08:00,
2013-01-08 21:13:00,26.9,25.1,30.39,SSE,157,0.0,0.0,93,0.00,,,0.00,Wunderground v.1.15,2013-01-09 02:13:00,
2013-01-08 21:18:00,26.8,25.0,30.39,SSE,157,0.0,0.0,93,0.00,,,0.00,Wunderground v.1.15,2013-01-09 02:18:00,
2013-01-08 21:23:00,26.7,25.2,30.39,SSE,157,0.0,0.0,94,0.00,,,0.00,Wunderground v.1.15,2013-01-09 02:23:00,
2013-01-08 21:28:00,26.6,24.8,30.39,SSE,157,0.0,0.0,93,0.00,,,0.00,Wunderground v.1.15,2013-01-09 02:28:00,
2013-01-08 21:33:00,26.6,24.8,30.39,SSE,157,0.0,0.0,93,0.00,,,0.00,Wunderground v.1.15,2013-01-09 02:33:00,
2013-01-08 21:39:00,26.4,24.7,30.40,SSE,157,0.0,0.0,93,0.00,,,0.00,Wunderground v.1.15,2013-01-09 02:39:00,
2013-01-08 21:44:00,26.2,24.7,30.39,SSE,157,0.0,0.0,94,0.00,,,0.00,Wunderground v.1.15,2013-01-09 02:44:00,
2013-01-08 21:49:00,26.0,24.3,30.40,SSE,157,0.0,0.0,93,0.00,,,0.00,Wunderground v.1.15,2013-01-09 02:49:00,
2013-01-08 21:54:00,25.9,24.4,30.40,SSE,157,0.0,0.0,94,0.00,,,0.00,Wunderground v.1.15,2013-01-09 02:54:00,
2013-01-08 21:59:00,25.8,24.3,30.40,SSE,157,0.0,0.0,94,0.00,,,0.00,Wunderground v.1.15,2013-01-09 02:59:00,
2013-01-08 22:04:00,25.8,24.3,30.40,SSE,157,0.0,0.0,94,0.00,,,0.00,Wunderground v.1.15,2013-01-09 03:04:00,
2013-01-08 22:09:00,25.7,24.2,30.39,SSE,157,0.0,0.0,94,0.00,,,0.00,Wunderground v.1.15,2013-01-09 03:09:00,
2013-01-08 22:14:00,25.6,24.1,30.38,SSE,157,0.0,0.0,94,0.00,,,0.00,Wunderground v.1.15,2013-01-09 03:14:00,
2013-01-08 22:20:00,25.4,23.9,30.38,SSE,157,0.0,0.0,94,0.00,,,0.00,Wunderground v.1.15,2013-01-09 03:20:00,
2013-01-08 22:25:00,25.2,23.7,30.39,SSE,157,0.0,0.0,94,0.00,,,0.00,Wunderground v.1.15,2013-01-09 03:25:00,
2013-01-08 22:30:00,25.1,23.6,30.39,SSE,157,0.0,0.0,94,0.00,,,0.00,Wunderground v.1.15,2013-01-09 03:30:00,
2013-01-08 22:36:00,25.1,23.6,30.39,SSE,157,0.0,0.0,94,0.00,,,0.00,Wunderground v.1.15,2013-01-09 03:36:00,
2013-01-08 22:41:00,25.0,23.5,30.39,SSE,157,0.0,0.0,94,0.00,,,0.00,Wunderground v.1.15,2013-01-09 03:41:00,
2013-01-08 22:46:00,24.9,23.4,30.39,SSE,157,0.0,0.0,94,0.00,,,0.00,Wunderground v.1.15,2013-01-09 03:46:00,
2013-01-08 22:51:00,24.8,23.3,30.38,SSE,157,0.0,0.0,94,0.00,,,0.00,Wunderground v.1.15,2013-01-09 03:51:00,
2013-01-08 22:56:00,24.6,23.1,30.38,SSE,157,0.0,0.0,94,0.00,,,0.00,Wunderground v.1.15,2013-01-09 03:56:00,
2013-01-08 23:01:00,24.5,23.0,30.38,SSE,157,0.0,0.0,94,0.00,,,0.00,Wunderground v.1.15,2013-01-09 04:01:00,
2013-01-08 23:06:00,24.3,22.8,30.38,SSE,157,0.0,0.0,94,0.00,,,0.00,Wunderground v.1.15,2013-01-09 04:06:00,
2013-01-08 23:11:00,24.2,22.7,30.38,SSE,157,0.0,0.0,94,0.00,,,0.00,Wunderground v.1.15,2013-01-09 04:11:00,
2013-01-08 23:17:00,24.1,22.6,30.38,SSE,157,0.0,0.0,94,0.00,,,0.00,Wunderground v.1.15,2013-01-09 04:17:00,
2013-01-08 23:22:00,24.0,22.5,30.38,SSE,157,0.0,0.0,94,0.00,,,0.00,Wunderground v.1.15,2013-01-09 04:22:00,
2013-01-08 23:27:00,23.9,22.4,30.38,SSE,157,0.0,0.0,94,0.00,,,0.00,Wunderground v.1.15,2013-01-09 04:27:00,
2013-01-08 23:32:00,23.9,22.4,30.37,SSE,157,0.0,0.0,94,0.00,,,0.00,Wunderground v.1.15,2013-01-09 04:32:00,
2013-01-08 23:38:00,23.8,22.3,30.37,SSE,157,0.0,0.0,94,0.00,,,0.00,Wunderground v.1.15,2013-01-09 04:38:00,
2013-01-08 23:43:00,23.7,22.2,30.37,SSE,157,0.0,0.0,94,0.00,,,0.00,Wunderground v.1.15,2013-01-09 04:43:00,
2013-01-08 23:48:00,23.5,22.0,30.37,SSE,157,0.0,0.0,94,0.00,,,0.00,Wunderground v.1.15,2013-01-09 04:48:00,
2013-01-08 23:53:00,23.4,21.9,30.37,SSE,157,0.0,0.0,94,0.00,,,0.00,Wunderground v.1.15,2013-01-09 04:53:00,
2013-01-08 23:58:00,23.3,21.8,30.37,SSE,157,0.0,0.0,94,0.00,,,0.00,Wunderground v.1.15,2013-01-09 04:58:00,